Regional Weather Roundup
Issued by NWS

Home | Current Version | Previous Version | Text Only | Print | Product List | Glossary Off
Versions: 1 2 3 4 5 6 7 8 9 10 11 12 13 14 15 16 17 18 19 20 21 22 23 24 25 26 27 28 29 30 31 32 33 34 35 36 37 38 39 40 41 42 43 44 45 46 47 48 49 50

000
ASUS43 KBIS 020510
RWRND

NORTH DAKOTA REGIONAL WEATHER ROUNDUP
NATIONAL WEATHER SERVICE BISMARCK ND
1100 PM CST THU DEC 01 2016

NOTE: "FAIR" INDICATES FEW OR NO CLOUDS BELOW 12,000 FEET WITH NO
SIGNIFICANT WEATHER AND/OR OBSTRUCTIONS TO VISIBILITY.


NDZ001>003-009>011-017-020600-
NORTHWEST NORTH DAKOTA

CITY           SKY/WX    TMP DP  RH WIND       PRES   REMARKS
WILLISTON      CLOUDY    29  24  82 SE5       30.08R
MINOT          CLOUDY    28  21  75 CALM      30.09R
MINOT AFB      CLOUDY    26  23  88 CALM      30.09R
$$

NDZ018>021-031>035-040>046-020600-
SOUTHWEST NORTH DAKOTA

CITY           SKY/WX    TMP DP  RH WIND       PRES   REMARKS
BISMARCK       CLOUDY    27  24  89 NE5       30.10R
DICKINSON      CLOUDY    24  21  88 CALM      30.03R
GARRISON         N/A     26  21  81 NE6       30.09R WCI  19
HETTINGER ARPT CLOUDY    25  21  85 E5        30.05R WCI  19
$$

NDZ004>008-012>016-024-026-027-054-020600-
NORTHEAST NORTH DAKOTA

CITY           SKY/WX    TMP DP  RH WIND       PRES   REMARKS
GRAND FORKS    CLOUDY    29  23  78 N13       30.09R WCI  19
GRND FRKS AFB  CLOUDY    28  23  82 NE15      30.10R WCI  16
DEVILS LAKE    CLOUDY    26  22  84 N12       30.10R WCI  16
$$

NDZ022-023-025-028>030-036>039-047>053-020600-
SOUTHEAST NORTH DAKOTA

CITY           SKY/WX    TMP DP  RH WIND       PRES   REMARKS
FARGO          CLOUDY    29  22  75 N12       30.08R WCI  19
JAMESTOWN      CLOUDY    26  20  77 N8        30.09R WCI  18
$$





USA.gov is the U.S. government's official web portal to all federal, state and local government web resources and services.